[[{"header":{"parameterUnit":"m.s-1","parameterCategory":1,"la1":30.2991,"la2":30.254,"lo1":-89.0895,"lo2":-89.0444,"dy":0.0017,"dx":0.0017,"nx":28,"ny":28,"refTime":"2023-06-28T21:00:00:Z","depth":0,"parameterNumber":2,"parameterNumberName":"U-component_of_WINDS"},"data":[0,0,0,0,0,0,0,0,0,0,0,0,0,0,0,0,0,0,0,0,0,0,0,0,0,0,0,0,0,0,0,0,0,0,0,0,0,0,0,0,0,0,0,0,0,0,0,0,0,0,0,0,0,0,0,0,0,0,-0.5193,-0.5193,0,-0.5148,-0.5148,-0.5147,-0.5145,-0.5146,-0.5147,-0.5147,-0.5097,-0.5095,-0.5093,0,0,0,0,0,0,0,0,0,0,0,0,0,-0.5273,-0.5272,-0.5193,-0.5193,-0.5192,-0.5148,-0.5148,-0.5147,-0.5145,-0.5146,-0.5147,-0.5147,-0.5097,-0.5095,-0.5093,0,0,0,0,0,0,0,0,0,0,0,0,0,-0.5234,-0.5272,-0.5193,-0.5186,-0.5185,-0.5148,-0.5147,-0.5147,-0.5145,-0.5146,-0.5147,-0.5148,-0.5098,-0.5095,-0.5093,-0.5059,0,0,-0.5084,-0.5083,0,0,0,0,0,0,0,0,-0.5237,-0.5231,-0.5188,-0.5186,-0.5185,-0.5153,-0.5157,-0.5117,-0.5145,-0.516,-0.5147,-0.5148,-0.5115,-0.5111,-0.51,-0.5057,-0.5054,-0.5084,-0.5082,-0.5081,-0.508,0,0,0,0,0,0,0,-0.5239,-0.5233,-0.5175,-0.5187,-0.5185,-0.5184,-0.5179,-0.515,-0.5133,-0.5159,-0.5159,-0.5154,-0.5114,-0.5103,-0.5099,-0.5054,-0.5084,-0.5082,-0.508,-0.5079,-0.4979,-0.4978,0,0,0,0,0,0,-0.5244,-0.5236,-0.5177,-0.5174,-0.5214,-0.5182,-0.5176,-0.5163,-0.5133,-0.513,-0.5153,-0.5154,-0.5107,-0.5102,-0.5097,-0.5055,-0.5081,-0.5078,-0.5077,-0.498,-0.4979,-0.4978,0,0,0,0,0,0,-0.5246,-0.5239,-0.5178,-0.5205,-0.5197,-0.5179,-0.5164,-0.5161,-0.515,-0.5129,-0.5126,-0.5145,-0.5108,-0.5101,-0.5069,-0.5053,-0.5077,-0.5075,-0.4981,-0.498,-0.4978,-0.4971,0,0,0,0,0,0,-0.5248,-0.5239,-0.5228,-0.5204,-0.5196,-0.5152,-0.5163,-0.516,-0.5146,-0.5146,-0.512,-0.5117,-0.5108,-0.5073,-0.5066,-0.505,-0.5073,-0.4982,-0.498,-0.4979,-0.4973,-0.497,-0.4967,0,0,0,0,0,-0.5251,-0.5227,-0.5227,-0.522,-0.518,-0.5151,-0.5146,-0.5137,-0.5145,-0.5132,-0.5118,-0.5118,-0.5056,-0.5069,-0.5062,-0.5045,-0.4983,-0.4981,-0.4979,-0.4974,-0.497,-0.4967,0,0,0,0,0,0,-0.5247,-0.5224,-0.5224,-0.5191,-0.5173,-0.5151,-0.5134,-0.5133,-0.5112,-0.5113,-0.5102,-0.5096,-0.5063,-0.5051,-0.5066,-0.501,-0.502,-0.5017,-0.5019,-0.5016,-0.5013,-0.5016,-0.507,0,0,0,0,0,-0.5243,-0.5222,-0.5202,-0.5175,-0.5167,-0.5152,-0.5139,-0.5134,-0.5114,-0.5106,-0.509,-0.507,-0.5046,-0.503,-0.5007,-0.4971,-0.4965,-0.4955,-0.4953,-0.495,-0.4947,-0.4926,-0.4921,-0.497,-0.497,-0.497,0,0,-0.5233,-0.5218,-0.5205,-0.5174,-0.516,-0.5137,-0.5146,-0.5122,-0.5104,-0.5102,-0.507,-0.5058,-0.5034,-0.5,-0.4984,-0.4988,-0.4932,-0.4948,-0.4946,-0.4944,-0.4923,-0.4919,-0.4915,-0.4969,-0.4969,-0.4969,0,0,-0.5204,-0.5191,-0.5167,-0.5152,-0.513,-0.5121,-0.5115,-0.5093,-0.5084,-0.5053,-0.505,-0.5029,-0.4988,-0.4971,-0.4958,-0.4922,-0.492,-0.4914,-0.4899,-0.4879,-0.4875,-0.4872,-0.4858,-0.4853,-0.4911,-0.4911,-0.4911,0,-0.5195,-0.5162,-0.5154,-0.513,-0.5116,-0.5114,-0.5089,-0.5075,-0.5046,-0.5036,-0.5042,-0.499,-0.4974,-0.4935,-0.4926,-0.4916,-0.4907,-0.4917,-0.4877,-0.4873,-0.487,-0.4856,-0.4851,-0.491,-0.491,-0.491,-0.491,0,-0.5151,-0.5128,-0.5111,-0.5085,-0.5069,-0.5044,-0.5031,-0.5016,-0.5012,-0.5001,-0.4968,-0.4949,-0.4922,-0.4912,-0.4908,-0.4872,-0.4876,-0.4879,-0.4889,-0.4864,-0.4852,-0.4847,-0.4909,-0.491,-0.491,-0.491,0,0,-0.5119,-0.5088,-0.5082,-0.5069,-0.5045,-0.5026,-0.5001,-0.4975,-0.4962,-0.4942,-0.4919,-0.4885,-0.4888,-0.4872,-0.4865,-0.4848,-0.4819,-0.4853,-0.4852,-0.4847,-0.4778,-0.4775,-0.477,-0.4819,-0.4818,-0.4817,-0.478,0,-0.5087,-0.5043,-0.5035,-0.4997,-0.4975,-0.4972,-0.495,-0.4931,-0.492,-0.4899,-0.4887,-0.4862,-0.4868,-0.4859,-0.4841,-0.4827,-0.4805,-0.4829,-0.4796,-0.4795,-0.4802,-0.4763,-0.476,-0.4726,-0.4775,-0.4774,-0.4773,0,-0.5044,-0.5023,-0.4983,-0.4961,-0.4951,-0.4932,-0.4907,-0.4887,-0.4866,-0.4859,-0.4841,-0.4836,-0.4809,-0.482,-0.4781,-0.4798,-0.4784,-0.4774,-0.4773,-0.4769,-0.4783,-0.4758,-0.4715,-0.471,-0.4766,-0.4766,-0.4767,0,-0.5023,-0.4986,-0.4957,-0.4946,-0.492,-0.4906,-0.4894,-0.4873,-0.4858,-0.4836,-0.4826,-0.48,-0.4786,-0.4766,-0.4754,-0.4764,-0.4715,-0.4726,-0.4708,-0.4708,-0.4697,-0.4698,-0.4652,-0.4689,-0.4689,-0.4689,-0.4689,0,-0.4988,-0.4964,-0.4947,-0.4929,-0.4901,-0.4891,-0.4863,-0.4851,-0.4832,-0.4811,-0.4807,-0.4786,-0.4772,-0.4749,-0.4739,-0.4708,-0.4701,-0.4694,-0.4692,-0.4694,-0.4695,-0.4684,-0.4686,-0.4688,-0.4688,-0.4688,-0.4689,0,-0.4961,-0.495,-0.4917,-0.4895,-0.4888,-0.4868,-0.4848,-0.483,-0.4819,-0.4792,-0.4784,-0.4767,-0.4739,-0.4726,-0.4691,-0.4685,-0.4649,-0.4648,-0.4657,-0.4655,-0.4637,-0.4639,-0.4582,-0.4574,-0.4617,-0.4617,-0.4617,0,-0.494,-0.4921,-0.4896,-0.4882,-0.487,-0.4847,-0.4831,-0.482,-0.4804,-0.4778,-0.4762,-0.4735,-0.4713,-0.4669,-0.4652,-0.4626,-0.4624,-0.4606,-0.462,-0.4623,-0.4623,-0.4624,-0.4622,-0.4603,-0.4603,-0.4603,-0.4602,0,-0.4902,-0.4897,-0.4876,-0.4852,-0.4834,-0.4814,-0.4795,-0.4783,-0.4769,-0.475,-0.4723,-0.4706,-0.4671,-0.4644,-0.4616,-0.4602,-0.4599,-0.4598,-0.4592,-0.4594,-0.46,-0.4596,-0.4649,-0.4599,-0.46,-0.46,-0.46,-0.46,-0.4877,-0.4859,-0.4839,-0.4815,-0.4799,-0.4781,-0.4763,-0.4749,-0.4727,-0.4698,-0.4693,-0.4664,-0.4641,-0.4604,-0.4589,-0.4565,-0.4569,-0.456,-0.4558,-0.4556,-0.4555,-0.4604,-0.456,-0.456,-0.456,-0.456,-0.456,0,-0.4839,-0.4826,-0.4804,-0.4777,-0.4757,-0.4757,-0.4735,-0.4719,-0.4694,-0.4674,-0.4652,-0.462,-0.4593,-0.4574,-0.4546,-0.4531,-0.4528,-0.4524,-0.4524,-0.4521,-0.4554,-0.4561,-0.4526,-0.4526,-0.4526,-0.4526,-0.4526,-0.4526,-0.4817,-0.4787,-0.478,-0.4741,-0.4728,-0.47,-0.4687,-0.467,-0.4654,-0.4618,-0.4596,-0.4585,-0.4564,-0.4535,-0.451,-0.4505,-0.4495,-0.449,-0.4484,-0.4515,-0.4519,-0.4522,-0.4529,-0.4488,-0.4488,-0.4454,-0.4453,-0.4453]},{"header":{"parameterUnit":"m.s-1","parameterCategory":1,"la1":30.2991,"la2":30.254,"lo1":-89.0895,"lo2":-89.0444,"dy":0.0017,"dx":0.0017,"nx":28,"ny":28,"refTime":"2023-06-28T21:00:00:Z","depth":0,"parameterNumber":3,"parameterNumberName":"V-component_of_WINDS"},"data":[0,0,0,0,0,0,0,0,0,0,0,0,0,0,0,0,0,0,0,0,0,0,0,0,0,0,0,0,0,0,0,0,0,0,0,0,0,0,0,0,0,0,0,0,0,0,0,0,0,0,0,0,0,0,0,0,0,0,2.9621,2.9621,0,2.9627,2.9627,2.9627,2.9663,2.9664,2.9665,2.9666,2.9668,2.9667,2.9666,0,0,0,0,0,0,0,0,0,0,0,0,0,2.9636,2.9635,2.9621,2.9621,2.9621,2.9627,2.9627,2.9627,2.9663,2.9664,2.9665,2.9666,2.9668,2.9667,2.9666,0,0,0,0,0,0,0,0,0,0,0,0,0,2.9634,2.9635,2.9621,2.964,2.9641,2.9627,2.9627,2.9627,2.9663,2.9664,2.9665,2.9667,2.9668,2.9667,2.9666,2.9633,0,0,2.9663,2.9662,0,0,0,0,0,0,0,0,2.9634,2.9634,2.9637,2.9638,2.964,2.9646,2.9633,2.9629,2.9662,2.9654,2.9666,2.9667,2.9659,2.9659,2.9657,2.9633,2.9633,2.9662,2.9662,2.9661,2.9661,0,0,0,0,0,0,0,2.9634,2.9634,2.9623,2.9637,2.9639,2.9647,2.9648,2.9633,2.9649,2.9655,2.9658,2.9658,2.966,2.9658,2.9657,2.9633,2.9662,2.9661,2.9661,2.966,2.9584,2.9583,0,0,0,0,0,0,2.9632,2.9633,2.9623,2.9623,2.9641,2.9645,2.9647,2.9643,2.965,2.9652,2.9657,2.966,2.9659,2.9659,2.9657,2.9621,2.9661,2.966,2.966,2.9585,2.9584,2.9582,0,0,0,0,0,0,2.9633,2.9631,2.9623,2.9629,2.9629,2.9644,2.9639,2.9642,2.964,2.9651,2.9654,2.9652,2.966,2.9659,2.9639,2.9621,2.966,2.9659,2.9587,2.9585,2.9583,2.9545,0,0,0,0,0,0,2.9633,2.9631,2.9619,2.9629,2.9628,2.9605,2.9638,2.9641,2.9638,2.9642,2.9647,2.9649,2.9661,2.9641,2.9638,2.962,2.9658,2.9589,2.9586,2.9584,2.9548,2.9542,2.9537,0,0,0,0,0,2.9633,2.9607,2.9618,2.9617,2.9614,2.9604,2.9604,2.962,2.9637,2.9625,2.9632,2.9649,2.9623,2.9639,2.9636,2.9617,2.959,2.9587,2.9584,2.9551,2.9543,2.9537,0,0,0,0,0,0,2.9593,2.9608,2.9621,2.9598,2.96,2.961,2.9596,2.9611,2.9607,2.9611,2.9629,2.963,2.9608,2.961,2.9627,2.9586,2.961,2.9606,2.9585,2.9579,2.9573,2.9573,2.9657,0,0,0,0,0,2.9581,2.9574,2.9587,2.9565,2.9565,2.958,2.9577,2.9589,2.9591,2.9591,2.9597,2.9598,2.959,2.9584,2.9578,2.9549,2.9551,2.9535,2.9529,2.9524,2.9521,2.9507,2.9501,2.9572,2.9572,2.9572,0,0,2.9557,2.9565,2.9558,2.9557,2.956,2.9551,2.9581,2.9569,2.9562,2.9589,2.9572,2.9576,2.9578,2.9554,2.9544,2.9555,2.9502,2.9521,2.9517,2.9516,2.9504,2.9497,2.9491,2.957,2.957,2.9571,0,0,2.9509,2.9513,2.9496,2.9499,2.9504,2.9515,2.9511,2.952,2.9524,2.9508,2.9528,2.9519,2.9505,2.9506,2.9505,2.9458,2.9474,2.9455,2.9426,2.9413,2.9407,2.9402,2.9387,2.9381,2.9452,2.9452,2.9452,0,2.9478,2.9466,2.9485,2.9473,2.9472,2.9498,2.9481,2.9482,2.9484,2.9482,2.9496,2.948,2.9483,2.946,2.9449,2.9447,2.9442,2.9455,2.9407,2.9402,2.9398,2.9383,2.9377,2.945,2.945,2.945,2.945,0,2.9428,2.9419,2.9405,2.9408,2.9405,2.939,2.9407,2.9401,2.9414,2.9423,2.9406,2.941,2.9406,2.9401,2.9412,2.938,2.9388,2.9404,2.9427,2.9388,2.9375,2.9369,2.9447,2.9447,2.9448,2.9448,0,0,2.9353,2.937,2.9364,2.9367,2.9375,2.9368,2.9354,2.9352,2.9347,2.9347,2.9336,2.9325,2.934,2.9338,2.935,2.9338,2.9303,2.9356,2.9356,2.9346,2.9269,2.9257,2.9251,2.9313,2.9312,2.9311,2.9269,0,2.9308,2.9287,2.9305,2.9281,2.9273,2.9299,2.9287,2.929,2.9298,2.9292,2.93,2.9292,2.9313,2.9312,2.9301,2.9309,2.9287,2.9312,2.9303,2.9302,2.9302,2.9243,2.9231,2.9191,2.9264,2.9263,2.9262,0,2.9252,2.9253,2.9228,2.924,2.9237,2.9226,2.9227,2.9221,2.9225,2.9231,2.9231,2.9246,2.9233,2.9256,2.9238,2.9255,2.9252,2.9255,2.9254,2.9254,2.928,2.9243,2.9179,2.9173,2.9254,2.9255,2.9255,0,2.9202,2.9196,2.9181,2.9183,2.9195,2.9187,2.9192,2.9197,2.9195,2.9195,2.9194,2.919,2.9189,2.9186,2.92,2.9216,2.9181,2.9205,2.9186,2.9185,2.9177,2.9178,2.9113,2.9174,2.9174,2.9174,2.9174,0,2.915,2.9134,2.9159,2.915,2.9133,2.9153,2.9136,2.9143,2.9148,2.914,2.9161,2.9153,2.9171,2.9165,2.9176,2.916,2.9158,2.9163,2.9167,2.9162,2.9162,2.9161,2.9164,2.9173,2.9173,2.9173,2.9174,0,2.9091,2.9107,2.9093,2.9107,2.911,2.9097,2.9108,2.91,2.911,2.91,2.9099,2.9114,2.9107,2.9121,2.9116,2.9124,2.9102,2.9108,2.9101,2.9103,2.9084,2.9086,2.9017,2.9009,2.9074,2.9073,2.9073,0,2.9057,2.9046,2.906,2.9057,2.9061,2.9056,2.9055,2.9074,2.9071,2.9076,2.9067,2.9063,2.9061,2.905,2.906,2.9056,2.9064,2.904,2.9064,2.906,2.9065,2.9066,2.9065,2.9035,2.9034,2.9034,2.9033,0,2.8996,2.9005,2.9003,2.9004,2.9003,2.9004,2.9007,2.9003,2.9023,2.9019,2.9015,2.9013,2.901,2.9005,2.9005,2.9008,2.9024,2.9026,2.9022,2.9017,2.9014,2.9017,2.9089,2.9027,2.9028,2.9028,2.9029,2.9029,2.8949,2.8941,2.895,2.8948,2.8952,2.8955,2.8948,2.8958,2.8955,2.8955,2.8966,2.8959,2.8964,2.8965,2.8968,2.8962,2.8973,2.8966,2.8964,2.8963,2.896,2.9014,2.8961,2.8962,2.8962,2.8962,2.8962,0,2.889,2.8898,2.8895,2.89,2.8898,2.8915,2.8919,2.8916,2.891,2.8914,2.8913,2.8907,2.8904,2.8914,2.8912,2.8905,2.8913,2.8904,2.8905,2.8906,2.895,2.8955,2.8899,2.8899,2.8899,2.8899,2.8899,2.8899,2.8859,2.8847,2.8858,2.8848,2.8855,2.885,2.8851,2.8853,2.8857,2.8851,2.8849,2.8856,2.8863,2.8862,2.886,2.8863,2.8861,2.885,2.8856,2.8897,2.8903,2.8909,2.8913,2.885,2.885,2.8813,2.8813,2.8812]}]]